星链-31299 (STARLINK-31299 )

导读 | 星芒AI

STARLINK-31299 是美国太空探索技术公司(SpaceX)星链(Starlink)卫星互联网项目中的一颗低轨通信卫星。该卫星属于星链计划的第三批部署任务,旨在为全球用户提供高速、低延迟的互联网服务。它运行在约550公里高的近地轨道,采用可再生太阳能供电,并具备自主避障能力。星链项目计划发射数万颗卫星,以构建覆盖全球的宽带网络,尤其服务于偏远和网络基础设施薄弱的地区。STARLINK-31299 的发射和运行有助于提升星链网络的覆盖密度和稳定性。

基本信息
目录编号:
59080
目录名称:
STARLINK-31299
国际标识:
2024-041G
轨道中心:
EARTH
卫星名称:
星链-31299
卫星全名:
星链-31299 (STARLINK-31299 )
卫星状态:
在轨 (已飞行659 天)
发射日期:
2024-02-29 UTC
国别 :
美国 (US)
星等 :
--
轨道信息
数据来源 国际轨道数据
星历时间: 2025-12-19T16:00:02+0800
14小时前
查看轨道信息
半长轴: 6837.588km
偏心率: 0.0008268
轨道倾角: 43.000°
近地点辐角 170.831°
升交点赤经 305.396°
平近点角 355.131°
近地点: 453.797km
远地点: 465.105km
周期: 93.781分钟
每日圈数: 15.354949
详细信息
固有亮度:
5
最大亮度:
0.3
卫星平台:
Starlink v2.0 mini
覆盖范围:
全球
运营商:
太空探索技术公司
运营商所在国:
美国
制造商(研发单位):
太空探索技术公司
制造商所在国:
美国
使用方式:
暂无
卫星简介
星链(Starlink)计划是由太空探索技术公司(SpaceX)提出的一个巨型低轨卫星互联网星座项目,计划在2019年至2024年间在太空搭建由约1.2万颗卫星组成的“星链”网络,其中1584颗将部署在地球上空550千米处的近地轨道,并从2020年开始工作。该卫星仍在工作。
2D轨道图
3D轨道图
轨道高度分析图
轨道倾角分析图
轨道综合分析图
查看轨道综合分析图